Probability
6 12 20 20 17 15 13 11 10 8 8 9 8 5 3 4 6 6 5 4 3 3 3 3 4 6 6 6 6 5 3 3 4 3 1 1 1 2 2 1 0 0 0
9 15 22 23 20 17 15 14 12 9 9 10 8 5 2 2 5 6 6 5 3 2 3 3 4 6 6 5 4 4 3 2 2 2 1 1 1 2 2 1 1 1 1
13 18 23 24 22 19 17 15 14 12 11 11 9 5 1 1 3 4 6 5 3 2 2 2 4 5 5 4 4 4 3 2 1 1 0 0 1 1 2 2 2 2 2
18 20 21 24 23 20 17 15 15 14 13 11 9 6 2 0 1 2 4 3 3 2 1 1 2 3 2 3 4 5 5 4 2 1 0 0 0 0 1 2 3 2 2
20 20 21 24 24 21 19 16 15 15 14 11 8 6 3 1 0 1 2 1 2 2 1 1 1 1 1 3 4 4 5 5 3 1 0 0 0 0 1 1 1 1 1
16 17 20 23 23 21 20 17 14 13 14 12 9 7 6 3 1 0 0 1 2 3 3 2 1 0 1 2 3 4 4 4 2 0 0 0 0 0 0 0 1 1 1
13 15 18 22 22 20 18 15 11 10 11 11 10 10 9 7 3 1 1 1 2 3 3 3 2 0 1 2 3 4 3 2 1 0 0 0 0 0 0 0 1 2 2
16 16 17 20 21 19 16 12 8 8 8 10 11 12 12 10 7 5 4 2 2 4 4 3 2 1 0 1 3 3 2 2 1 0 0 0 0 0 0 0 0 1 2
16 16 17 18 18 17 15 11 8 8 8 9 11 12 12 11 9 7 6 5 4 5 6 5 4 3 1 1 2 2 3 3 1 0 0 0 0 0 0 1 1 0 1
15 16 17 17 16 15 14 12 11 10 11 11 10 10 11 10 9 7 6 5 6 7 7 7 6 4 1 1 1 2 2 2 1 0 0 0 1 1 1 2 2 1 0
16 17 18 18 16 14 14 13 12 12 12 11 8 8 10 9 9 8 6 5 5 7 8 8 8 6 4 2 1 1 1 0 0 0 0 0 1 2 2 3 3 2 1
17 17 19 19 17 16 14 13 12 11 11 9 6 6 8 9 10 9 7 5 4 6 7 8 8 7 6 4 2 1 1 0 0 0 0 0 1 1 1 2 3 3 3
17 18 18 18 18 17 15 14 13 12 11 8 4 3 6 8 10 9 8 7 5 5 5 6 6 6 6 5 3 2 1 0 0 0 0 1 1 1 2 3 4 4 4
15 17 18 17 17 17 16 14 12 12 11 8 5 4 7 9 9 9 9 8 7 5 3 3 3 4 5 5 3 1 1 0 0 0 1 2 3 4 5 4 5 5 5
13 14 15 15 15 15 14 12 11 11 10 8 6 7 9 10 9 8 9 9 7 5 3 3 3 3 4 4 3 1 0 0 0 0 1 2 3 5 5 4 4 5 5
12 12 13 14 14 13 12 11 11 11 9 8 8 8 9 10 9 8 9 8 7 5 3 2 3 3 2 2 2 1 0 0 0 0 0 1 2 2 2 2 3 3 4
12 11 11 13 13 13 11 10 11 10 8 7 7 8 8 8 8 8 9 8 6 5 3 1 2 2 1 0 0 0 0 0 0 0 1 2 2 1 1 3 4 3 2
12 10 11 13 14 14 12 10 8 8 6 5 5 6 6 6 6 7 8 7 6 5 3 1 1 1 0 0 0 0 0 0 0 1 2 3 2 1 1 3 4 3 2
11 11 12 14 16 15 13 9 6 4 4 3 3 3 4 4 5 6 6 6 6 6 5 3 2 1 1 0 0 1 0 0 0 1 2 3 2 1 1 1 2 2 3
13 13 14 16 15 14 12 8 3 2 2 2 2 3 3 3 5 5 6 6 6 6 6 5 4 3 2 1 1 1 0 0 0 0 1 2 1 1 1 0 0 1 2
13 14 16 17 15 12 10 6 3 1 2 2 2 2 2 3 4 4 4 5 6 6 6 6 6 5 3 3 2 2 1 1 0 0 0 1 1 0 0 0 0 0 1
12 13 16 17 15 12 9 6 3 2 2 1 1 1 1 1 2 3 3 4 6 6 6 6 6 4 3 3 3 3 3 2 1 0 0 0 0 0 0 0 0 0 0
10 11 13 15 15 11 8 6 4 2 1 0 0 1 1 1 1 2 4 4 5 6 6 6 5 3 2 2 2 3 3 2 1 0 0 0 0 1 0 0 0 0 0
8 10 11 12 13 11 8 7 5 3 1 1 1 1 2 2 2 3 4 5 4 4 4 4 4 2 1 1 1 1 2 2 1 0 0 0 0 0 0 0 0 0 0
9 10 10 10 9 9 8 8 7 5 3 1 1 1 1 1 2 3 4 5 4 3 2 2 2 1 1 1 1 1 1 1 0 0 0 0 0 0 0 0 0 0 0
12 11 10 8 6 7 8 8 7 6 4 1 0 0 0 0 1 3 4 4 4 2 1 1 0 0 0 1 1 0 0 0 0 0 0 0 0 0 0 0 0 0 0
Wind_Speed
4 6 11 10 10 10 11 11 12 11 11 11 10 10 10 10 10 10 10 11 11 11 11 11 10 10 10 10 10 10 10 10 10 11 12 12 12 12 12 12 12 10 13
8 8 12 11 11 11 11 11 11 11 11 10 10 10 9 9 9 9 10 11 11 11 10 10 10 9 10 9 10 10 10 10 10 11 11 11 12 12 12 12 12 9 13
10 8 11 12 11 11 11 11 11 11 11 10 10 9 9 9 9 9 10 10 10 10 10 9 9 9 9 9 9 9 9 9 9 10 9 6 8 11 11 12 12 12 12
10 7 9 13 12 12 11 11 10 11 11 10 10 9 9 9 9 9 9 10 10 9 9 9 9 8 8 8 8 9 8 8 9 10 5 5 5 10 11 12 12 12 12
9 7 9 13 12 12 11 10 10 10 10 10 9 9 9 9 9 9 9 9 9 9 9 9 8 8 7 7 7 8 8 9 9 8 5 4 4 8 10 11 12 12 11
8 6 8 13 12 11 11 10 10 10 10 9 9 9 9 8 8 8 8 8 8 9 9 9 8 8 7 6 7 7 8 9 8 5 4 4 4 8 10 11 11 11 11
8 6 7 12 12 11 11 10 9 9 9 9 8 8 8 8 7 7 7 7 8 8 8 8 7 7 7 6 6 7 8 8 6 4 4 3 4 8 10 10 11 11 11
8 6 6 11 11 11 10 10 9 9 8 8 8 8 7 7 7 7 6 6 7 7 7 7 6 6 6 6 6 6 7 7 6 4 3 3 5 7 9 9 10 10 10
6 5 4 6 8 10 10 9 9 8 7 7 7 7 7 7 7 6 6 5 5 6 7 6 6 6 5 5 6 6 6 7 5 3 4 2 5 7 8 8 9 9 10
4 4 4 4 4 4 5 8 9 8 7 7 7 7 7 6 6 6 4 5 4 5 6 6 6 5 5 5 5 6 6 6 4 3 2 3 5 6 7 8 8 9 9
5 4 4 3 3 3 3 6 6 7 6 6 5 6 5 2 2 2 3 4 4 4 5 5 5 5 5 4 4 6 5 2 4 2 2 4 5 6 7 8 8 8 9
7 6 4 4 4 3 4 3 2 2 2 2 2 2 2 1 1 2 2 3 3 3 4 4 4 4 3 2 3 4 2 3 3 2 2 5 6 7 7 8 8 8 8
7 6 5 5 4 4 3 2 1 1 1 1 2 2 2 1 1 1 0 0 0 1 1 1 2 1 2 2 2 2 3 2 2 2 2 5 6 6 7 7 7 7 8
5 7 6 5 5 4 3 3 2 2 1 1 2 2 2 1 1 1 1 1 1 1 1 1 1 1 2 3 3 3 3 2 2 1 2 5 5 5 6 6 7 7 8
5 5 5 5 5 4 3 3 3 2 2 2 2 2 2 2 2 1 1 1 1 1 1 1 1 2 2 3 3 3 3 3 2 2 1 4 4 5 6 6 6 7 8
6 6 5 6 5 5 4 3 3 2 2 2 2 2 3 2 2 2 1 1 1 1 1 1 2 2 1 1 2 2 2 2 2 2 1 2 4 5 5 6 6 7 7
5 5 5 6 5 4 4 3 3 2 2 2 2 2 3 3 3 2 2 1 1 1 2 2 2 2 1 1 2 2 2 2 2 2 1 1 1 4 5 6 5 6 6
4 5 5 5 5 4 3 3 2 2 2 1 1 2 3 4 4 3 2 2 2 2 2 2 2 2 2 2 1 1 1 1 2 2 1 1 1 1 2 4 5 5 5
4 5 5 4 5 4 3 2 2 2 2 2 2 2 2 3 4 3 2 2 3 3 2 2 2 2 2 1 1 1 1 1 1 1 1 1 1 1 1 2 4 5 6
2 3 4 4 4 4 3 2 1 1 1 1 1 2 2 2 3 3 3 3 3 3 2 2 3 2 2 1 2 2 2 1 1 1 1 0 1 1 1 1 1 3 5
3 3 4 5 4 4 3 2 2 1 1 1 1 2 2 2 3 3 3 3 3 3 3 3 3 3 2 2 2 2 3 3 2 1 1 0 0 1 1 1 1 1 2
3 3 3 4 4 4 3 2 1 2 1 1 0 1 2 2 3 3 4 3 3 3 4 3 3 2 2 2 2 2 1 2 2 1 1 0 1 0 0 1 1 1 1
3 4 4 4 4 4 3 2 2 2 2 1 1 0 1 2 3 3 4 3 3 3 3 3 3 4 3 2 2 2 2 1 1 2 1 1 1 0 1 0 1 1 2
3 3 3 3 4 4 4 4 4 3 2 2 1 1 1 2 2 3 4 4 4 3 3 3 3 3 4 2 1 1 1 2 2 0 1 1 1 1 1 1 1 1 2
3 3 3 3 3 3 3 4 4 3 2 1 1 2 2 1 1 2 3 3 3 3 3 4 3 3 3 3 2 1 2 1 1 2 1 1 2 1 1 1 1 1 1
3 3 3 3 2 2 3 3 4 4 3 3 2 2 1 1 1 2 3 3 3 3 3 3 3 4 3 3 2 2 2 2 1 2 2 1 1 2 1 1 1 1 1
Wind_Direction
162 161 155 146 140 132 127 124 123 122 120 120 118 119 120 121 121 122 129 125 121 120 120 118 117 116 113 112 112 117 123 124 126 126 128 128 127 126 124 121 117 115 117
150 157 155 148 142 136 131 127 126 125 125 123 122 123 126 126 124 122 129 127 126 125 123 122 120 114 110 112 114 117 122 126 127 129 129 128 131 129 126 123 120 119 121
142 153 153 152 146 140 136 132 130 128 129 128 126 127 130 129 126 128 129 128 128 128 127 125 121 115 111 112 116 118 120 124 130 131 125 116 128 130 130 129 124 122 125
144 149 154 154 149 144 140 137 135 133 133 133 131 131 133 132 130 129 132 130 131 130 129 125 120 113 110 111 116 119 122 124 128 128 114 113 126 134 135 135 132 129 130
145 150 161 157 153 147 144 142 141 140 139 138 137 136 135 135 134 133 135 136 135 133 130 122 115 111 108 109 115 118 121 120 122 117 114 120 125 139 140 141 138 135 134
147 153 165 159 157 153 149 147 147 145 145 145 143 141 139 139 137 138 140 142 143 138 134 130 127 123 118 114 116 118 125 125 116 113 118 126 137 147 148 147 145 141 140
152 158 168 163 161 158 156 154 152 152 151 149 149 147 145 143 141 143 145 147 149 149 142 136 135 133 129 123 125 125 126 125 116 118 125 134 150 156 155 154 150 148 149
155 156 164 168 165 164 162 159 157 154 152 153 154 152 150 148 148 145 144 147 153 155 153 147 146 139 132 130 134 139 138 135 127 129 131 142 161 166 163 159 158 157 157
146 149 159 167 170 170 167 161 157 154 156 158 158 159 159 157 158 155 152 153 158 163 164 158 154 147 139 136 139 143 141 137 126 134 146 153 171 176 172 169 164 164 163
143 152 153 153 157 160 168 167 162 161 162 164 165 166 165 164 166 169 166 170 169 172 172 171 163 154 146 139 139 147 143 129 124 130 140 169 176 182 182 180 175 171 170
165 165 153 152 153 152 163 173 166 164 163 163 167 169 164 151 158 175 183 182 184 179 175 174 166 159 154 145 144 143 131 123 127 137 157 171 182 191 187 183 182 176 174
180 177 167 165 160 156 168 156 148 158 157 152 155 154 139 128 166 167 185 183 186 187 179 169 162 157 141 121 134 134 118 129 134 147 174 175 185 190 186 185 183 179 178
181 176 175 174 168 165 157 147 143 135 142 148 149 139 128 116 126 113 90 187 129 153 132 149 134 106 119 127 128 125 127 132 143 163 182 180 180 183 185 186 181 176 179
173 180 176 175 173 173 160 158 158 160 172 184 173 158 147 149 146 139 126 107 94 93 95 92 103 101 125 137 144 141 141 143 154 167 194 182 177 178 180 179 182 181 183
178 182 182 178 178 174 167 175 168 175 179 188 168 168 164 167 166 152 146 139 126 117 113 104 104 121 138 138 144 147 153 156 158 170 193 191 187 187 189 193 193 190 187
183 186 186 183 181 174 175 174 169 173 174 172 175 181 174 170 161 156 165 153 141 131 125 119 121 125 134 142 136 140 148 150 159 168 175 201 197 193 195 202 205 200 194
185 184 187 184 177 177 177 176 167 167 166 177 184 182 177 170 164 166 172 162 156 135 124 107 100 97 104 110 114 129 130 142 155 159 164 187 207 208 206 201 201 205 201
177 180 188 184 175 177 174 168 163 162 158 175 190 192 184 174 166 164 170 165 156 133 124 124 115 107 92 95 112 117 110 130 142 154 165 187 208 227 215 203 198 203 204
180 179 178 173 168 167 162 149 150 150 158 169 174 173 186 175 168 164 169 161 148 133 131 137 108 114 115 103 112 99 89 108 124 145 158 187 203 218 209 205 209 213 213
160 158 162 152 146 144 137 123 112 117 136 150 168 164 165 172 165 159 157 153 146 136 132 124 115 102 110 112 101 75 56 56 73 85 132 154 185 210 204 202 213 227 225
142 136 150 150 145 140 142 150 155 174 172 160 165 141 154 161 158 155 152 149 151 148 146 137 124 110 89 94 89 60 32 38 46 36 46 81 207 221 177 182 200 213 233
168 158 158 155 149 146 158 161 153 144 147 144 116 109 141 152 156 159 154 158 153 143 139 137 132 123 97 84 110 103 48 15 11 15 20 333 280 328 161 212 205 202 221
168 176 177 167 153 144 132 115 97 76 69 76 89 113 142 153 156 157 158 152 147 148 154 151 146 142 134 92 87 128 136 184 332 354 358 356 349 2 317 271 221 219 216
189 182 171 156 152 142 141 143 143 155 161 181 171 151 123 140 156 160 155 149 148 147 152 157 146 142 136 137 94 76 121 143 141 30 345 352 348 334 317 297 274 253 236
172 164 158 145 145 145 150 156 153 152 147 121 107 104 96 100 131 144 145 142 144 146 153 150 141 136 136 144 145 131 104 79 109 151 240 329 346 341 329 310 298 285 267
133 136 133 138 142 144 145 156 161 156 141 128 123 120 116 113 108 117 131 138 146 148 150 152 147 142 141 136 135 133 142 145 161 156 183 244 307 314 321 312 304 296 285